�������l�o���
Date,Time,MP-1(��Sv/h),MP-2(��Sv/h),MP-3(��Sv/h),MP-4(��Sv/h),MP-5(��Sv/h),MP-6(��Sv/h),MP-7(��Sv/h),MP-8(��Sv/h),����,����(m/s),���J
2019/11/11,00:00,0.736,1.059,0.685,1.299,0.919,0.417,0.726,0.686,�쐼,2.6,��
2019/11/11,00:10,0.737,1.059,0.686,1.298,0.921,0.417,0.726,0.686,��쐼,3.1,��
2019/11/11,00:20,0.738,1.058,0.686,1.300,0.919,0.419,0.724,0.687,��쐼,3.5,��
2019/11/11,00:30,0.736,1.060,0.683,1.300,0.918,0.418,0.723,0.685,��쐼,4.0,��
2019/11/11,00:40,0.736,1.058,0.686,1.300,0.918,0.418,0.726,0.686,��쐼,4.6,��
2019/11/11,00:50,0.737,1.059,0.687,1.297,0.920,0.418,0.726,0.687,��쐼,4.3,��
2019/11/11,01:00,0.737,1.058,0.684,1.299,0.919,0.417,0.725,0.688,�쐼,3.5,��
2019/11/11,01:10,0.736,1.059,0.685,1.299,0.921,0.419,0.724,0.686,�쐼,3.5,��
2019/11/11,01:20,0.736,1.058,0.684,1.297,0.919,0.416,0.726,0.686,�쐼,3.6,��
2019/11/11,01:30,0.737,1.060,0.685,1.297,0.918,0.417,0.724,0.686,��쐼,3.8,��
2019/11/11,01:40,0.736,1.055,0.684,1.300,0.918,0.417,0.726,0.687,��쐼,3.5,��
2019/11/11,01:50,0.736,1.058,0.685,1.300,0.917,0.416,0.726,0.685,��쐼,4.0,��
2019/11/11,02:00,0.738,1.059,0.685,1.299,0.917,0.417,0.726,0.686,��,3.0,��
2019/11/11,02:10,0.736,1.056,0.684,1.301,0.918,0.418,0.725,0.686,��,1.1,��
2019/11/11,02:20,0.736,1.059,0.686,1.298,0.919,0.417,0.727,0.687,��,0.5,��
2019/11/11,02:30,0.737,1.059,0.686,1.299,0.918,0.419,0.725,0.687,��,2.0,��
2019/11/11,02:40,0.738,1.059,0.686,1.298,0.920,0.417,0.726,0.687,��,2.1,��
2019/11/11,02:50,0.737,1.058,0.686,1.299,0.919,0.419,0.724,0.688,��,2.2,��
2019/11/11,03:00,0.737,1.059,0.686,1.298,0.919,0.417,0.725,0.688,��,2.2,��
2019/11/11,03:10,0.738,1.059,0.687,1.299,0.918,0.418,0.726,0.687,��,3.0,��
2019/11/11,03:20,0.736,1.059,0.685,1.299,0.919,0.418,0.726,0.686,��,2.3,��
2019/11/11,03:30,0.736,1.058,0.686,1.300,0.918,0.418,0.725,0.687,��,2.6,��
2019/11/11,03:40,0.737,1.056,0.686,1.300,0.919,0.419,0.725,0.688,��,2.0,��
2019/11/11,03:50,0.737,1.057,0.684,1.298,0.919,0.417,0.725,0.687,��쐼,2.8,��
2019/11/11,04:00,0.737,1.058,0.684,1.299,0.920,0.419,0.725,0.687,��쐼,2.7,��
2019/11/11,04:10,0.737,1.060,0.684,1.300,0.920,0.418,0.726,0.688,��,3.1,��
2019/11/11,04:20,0.738,1.057,0.686,1.298,0.920,0.417,0.725,0.688,��,3.0,��
2019/11/11,04:30,0.737,1.058,0.686,1.298,0.916,0.418,0.725,0.689,��,2.5,��
2019/11/11,04:40,0.735,1.057,0.686,1.297,0.920,0.418,0.725,0.687,��쐼,2.1,��
2019/11/11,04:50,0.737,1.059,0.685,1.301,0.918,0.417,0.725,0.687,��쐼,2.1,��
2019/11/11,05:00,0.737,1.060,0.687,1.299,0.920,0.418,0.726,0.688,��쐼,2.4,��
2019/11/11,05:10,0.737,1.057,0.685,1.300,0.918,0.419,0.727,0.687,��쐼,2.9,��
2019/11/11,05:20,0.738,1.058,0.686,1.300,0.920,0.418,0.725,0.688,��,2.5,��
2019/11/11,05:30,0.735,1.058,0.685,1.300,0.919,0.419,0.724,0.688,��,2.2,��
2019/11/11,05:40,0.739,1.057,0.686,1.301,0.919,0.420,0.725,0.688,��,2.4,��
2019/11/11,05:50,0.738,1.058,0.686,1.297,0.918,0.417,0.726,0.687,��쐼,1.9,��
2019/11/11,06:00,0.737,1.058,0.687,1.300,0.918,0.418,0.726,0.688,��쐼,1.9,��
2019/11/11,06:10,0.737,1.058,0.686,1.300,0.920,0.417,0.725,0.687,��쐼,1.5,��
2019/11/11,06:20,0.737,1.059,0.682,1.301,0.918,0.418,0.725,0.688,��,2.0,��
2019/11/11,06:30,0.736,1.062,0.686,1.297,0.920,0.418,0.726,0.687,��쓌,1.0,�L
2019/11/11,06:40,0.738,1.058,0.686,1.299,0.919,0.418,0.726,0.688,-,CALM,�L
2019/11/11,06:50,0.738,1.060,0.685,1.298,0.918,0.418,0.725,0.688,�쐼,0.5,��
2019/11/11,07:00,0.735,1.059,0.687,1.301,0.919,0.419,0.725,0.688,��쐼,0.6,�L
2019/11/11,07:10,0.738,1.056,0.686,1.301,0.917,0.419,0.724,0.687,��,1.5,�L
2019/11/11,07:20,0.736,1.057,0.686,1.300,0.917,0.419,0.724,0.684,�쐼,1.0,�L
2019/11/11,07:30,0.736,1.056,0.685,1.298,0.917,0.418,0.725,0.687,��쐼,1.6,�L
2019/11/11,07:40,0.737,1.057,0.688,1.298,0.916,0.419,0.723,0.687,���쐼,1.6,�L
2019/11/11,07:50,0.738,1.056,0.684,1.300,0.917,0.418,0.722,0.686,���쐼,2.4,�L
2019/11/11,08:00,0.737,1.056,0.684,1.300,0.917,0.418,0.724,0.688,��,0.9,�L
2019/11/11,08:10,0.737,1.055,0.685,1.298,0.915,0.418,0.723,0.686,���쐼,1.6,�L
2019/11/11,08:20,0.735,1.051,0.686,1.297,0.912,0.418,0.722,0.686,���쐼,0.9,�L
2019/11/11,08:30,0.733,1.046,0.685,1.294,0.912,0.421,0.723,0.685,�k�k��,0.5,�L
2019/11/11,08:40,0.735,1.042,0.683,1.292,0.908,0.421,0.722,0.685,�k�k��,1.0,�L
2019/11/11,08:50,0.735,1.039,0.683,1.291,0.909,0.421,0.720,0.684,-,CALM,�L
2019/11/11,09:00,0.733,1.036,0.682,1.287,0.905,0.423,0.721,0.685,-,CALM,�L
2019/11/11,09:10,0.733,1.033,0.682,1.287,0.907,0.423,0.718,0.682,���k��,1.0,�L
2019/11/11,09:20,0.732,1.032,0.682,1.287,0.905,0.421,0.719,0.683,��,1.2,�L
2019/11/11,09:30,0.731,1.031,0.681,1.282,0.904,0.418,0.720,0.683,�k��,1.0,�L
2019/11/11,09:40,0.728,1.030,0.679,1.286,0.901,0.419,0.718,0.682,�k��,0.9,��
2019/11/11,09:50,0.725,1.031,0.677,1.282,0.899,0.417,0.719,0.683,�k�k��,1.6,��
2019/11/11,10:00,0.725,1.030,0.676,1.283,0.901,0.418,0.718,0.682,�k,2.1,��
2019/11/11,10:10,0.726,1.028,0.677,1.279,0.897,0.415,0.718,0.683,�k�k��,3.0,��
2019/11/11,10:20,0.724,1.028,0.679,1.279,0.901,0.416,0.717,0.683,�k��,3.5,��
2019/11/11,10:30,0.725,1.028,0.676,1.278,0.897,0.417,0.718,0.681,�k��,3.3,�L
2019/11/11,10:40,0.722,1.027,0.675,1.280,0.901,0.415,0.717,0.681,�k��,4.1,�L
2019/11/11,10:50,0.721,1.026,0.677,-,0.900,0.414,0.720,0.681,���k��,3.6,�L
2019/11/11,11:00,0.721,1.025,0.677,-,0.897,0.415,0.716,0.681,�k��,2.6,�L
2019/11/11,11:10,0.721,1.028,0.677,-,0.898,0.413,0.717,0.681,�k��,2.2,�L
2019/11/11,11:20,0.722,1.030,0.676,-,0.894,0.415,0.718,0.679,�k��,1.7,�L
2019/11/11,11:30,0.722,1.025,0.678,-,0.897,0.415,0.717,0.682,�k��,2.2,�L
2019/11/11,11:40,0.723,1.031,0.676,-,0.899,0.414,0.719,0.682,�k��,1.8,�L
2019/11/11,11:50,0.722,1.026,0.675,-,0.897,0.414,0.718,0.681,�k��,1.8,��
2019/11/11,12:00,0.724,1.029,0.677,-,0.898,0.415,0.719,0.681,�k��,1.7,�L
2019/11/11,12:10,0.724,1.026,0.678,-,0.897,0.414,0.719,0.681,���k��,2.1,�L
2019/11/11,12:20,0.725,1.028,0.677,-,0.894,0.414,0.718,0.681,�k��,1.8,�L
2019/11/11,12:30,0.723,1.024,0.677,-,0.895,0.412,0.718,0.680,���k��,1.1,�L
2019/11/11,12:40,0.722,1.022,0.677,-,0.895,0.413,0.717,0.679,�k�k��,1.2,�L
2019/11/11,12:50,0.724,1.023,0.676,-,0.891,0.413,0.716,0.678,�k�k��,0.6,�L
2019/11/11,13:00,0.722,1.021,0.676,-,0.892,0.414,0.716,0.678,�k,1.3,�L
2019/11/11,13:10,0.720,1.021,0.675,-,0.894,0.414,0.717,0.678,�k�k��,2.5,�L
2019/11/11,13:20,0.719,1.019,0.675,-,0.890,0.413,0.715,0.676,�k�k��,2.4,�L
2019/11/11,13:30,0.718,1.012,0.671,-,0.890,0.414,0.716,0.677,�k,0.9,�L
2019/11/11,13:40,0.715,1.013,0.673,-,0.890,0.412,0.715,0.677,�k�k��,1.3,�L
2019/11/11,13:50,0.714,1.013,0.671,-,0.887,0.414,0.712,0.674,�k�k��,1.4,�L
2019/11/11,14:00,0.716,1.012,0.671,-,0.881,0.412,0.708,0.671,�k�k��,0.7,�L
2019/11/11,14:10,0.711,1.005,0.667,-,0.879,0.410,0.710,0.671,�k�k��,0.6,�L
2019/11/11,14:20,0.708,1.006,0.668,-,0.882,0.410,0.709,0.672,�k,2.2,�L
2019/11/11,14:30,0.711,1.007,0.670,-,0.882,0.412,0.709,0.673,�k�k��,0.6,�L
2019/11/11,14:40,0.712,1.009,0.669,-,0.881,0.411,0.710,0.672,���k��,0.5,�L
2019/11/11,14:50,0.713,1.011,0.671,-,0.883,0.412,0.711,0.675,���k��,1.3,�L
2019/11/11,15:00,0.713,1.010,0.670,-,0.881,0.411,0.711,0.675,�k�k��,2.2,�L
2019/11/11,15:10,0.713,1.010,0.671,1.260,0.883,0.412,0.710,0.674,�k�k��,2.7,�L
2019/11/11,15:20,0.715,1.013,0.669,1.255,0.884,0.410,0.711,0.674,�쐼,0.7,��
2019/11/11,15:30,0.714,1.010,0.670,1.256,0.884,0.410,0.711,0.675,�쓌,1.2,��
2019/11/11,15:40,0.715,1.008,0.669,1.253,0.885,0.412,0.711,0.675,-,CALM,��
2019/11/11,15:50,0.713,1.013,0.670,1.256,0.885,0.410,0.711,0.673,���쓌,1.9,��
2019/11/11,16:00,0.714,1.010,0.671,1.254,0.885,0.411,0.709,0.675,�쓌,1.0,��
2019/11/11,16:10,0.715,1.013,0.671,1.254,0.883,0.409,0.710,0.675,-,CALM,��
2019/11/11,16:20,0.717,1.013,0.671,1.255,0.884,0.412,0.711,0.675,�k�k��,1.5,��
2019/11/11,16:30,0.716,1.015,0.670,1.254,0.885,0.410,0.711,0.676,�k�k��,1.2,�L
2019/11/11,16:40,0.715,1.013,0.670,1.258,0.885,0.411,0.712,0.677,�k��,1.0,��
2019/11/11,16:50,0.714,1.014,0.669,1.254,0.887,0.411,0.711,0.677,�k�k��,0.7,��
2019/11/11,17:00,0.715,1.014,0.671,1.255,0.886,0.411,0.712,0.677,�k��,2.6,��
2019/11/11,17:10,0.715,1.011,0.670,1.254,0.885,0.410,0.710,0.674,���k��,0.7,��
2019/11/11,17:20,0.712,1.014,0.671,1.256,0.885,0.412,0.711,0.677,-,CALM,��
2019/11/11,17:30,0.714,1.015,0.671,1.253,0.886,0.411,0.712,0.676,-,CALM,��
2019/11/11,17:40,0.713,1.014,0.671,1.257,0.885,0.410,0.711,0.676,�k�k��,1.7,��
2019/11/11,17:50,0.714,1.012,0.671,1.254,0.888,0.412,0.712,0.676,�k�k��,2.5,��
2019/11/11,18:00,0.714,1.015,0.670,1.255,0.886,0.411,0.713,0.676,�k,3.1,��
2019/11/11,18:10,0.712,1.014,0.672,1.257,0.887,0.410,0.713,0.676,�k�k��,4.1,��
2019/11/11,18:20,0.713,1.015,0.672,1.259,0.886,0.410,0.711,0.676,�k��,3.2,��
2019/11/11,18:30,0.715,1.016,0.673,1.256,0.886,0.411,0.713,0.676,�k��,3.6,��
2019/11/11,18:40,0.713,1.014,0.671,1.256,0.888,0.412,0.712,0.677,�k�k��,3.4,��
2019/11/11,18:50,0.713,1.016,0.671,1.257,0.887,0.409,0.713,0.677,�k�k��,3.6,��
2019/11/11,19:00,0.713,1.015,0.670,1.257,0.889,0.411,0.712,0.676,�k�k��,4.1,��
2019/11/11,19:10,0.714,1.015,0.671,1.257,0.888,0.412,0.714,0.678,�k�k��,4.4,��
2019/11/11,19:20,0.716,1.014,0.673,1.257,0.888,0.410,0.713,0.675,�k��,5.8,��
2019/11/11,19:30,0.714,1.012,0.670,1.256,0.886,0.411,0.713,0.676,�k��,4.9,��
2019/11/11,19:40,0.714,1.014,0.672,1.256,0.888,0.411,0.714,0.677,�k��,4.5,��
2019/11/11,19:50,0.714,1.014,0.672,1.257,0.889,0.412,0.714,0.676,�k��,3.7,��
2019/11/11,20:00,0.715,1.012,0.673,1.258,0.887,0.410,0.712,0.677,���k��,2.3,��
2019/11/11,20:10,0.716,1.015,0.671,1.259,0.886,0.411,0.713,0.676,���쐼,1.6,��
2019/11/11,20:20,0.713,1.014,0.671,1.257,0.887,0.410,0.714,0.676,��,2.5,��
2019/11/11,20:30,0.714,1.012,0.673,1.257,0.887,0.411,0.713,0.676,��,2.5,��
2019/11/11,20:40,0.713,1.016,0.671,1.257,0.886,0.412,0.714,0.678,���k��,2.0,��
2019/11/11,20:50,0.715,1.013,0.672,1.259,0.888,0.411,0.713,0.677,�k��,2.2,��
2019/11/11,21:00,0.715,1.014,0.672,1.255,0.886,0.411,0.714,0.678,�k��,4.4,��
2019/11/11,21:10,0.714,1.014,0.673,1.256,0.888,0.411,0.716,0.677,�k��,4.1,��
2019/11/11,21:20,0.713,1.014,0.673,1.257,0.885,0.412,0.715,0.676,�k��,2.8,��
2019/11/11,21:30,0.713,1.013,0.670,1.256,0.887,0.411,0.714,0.675,�k��,1.7,��
2019/11/11,21:40,0.715,1.013,0.671,1.259,0.888,0.413,0.715,0.675,�k��,0.6,��
2019/11/11,21:50,0.714,1.013,0.672,1.256,0.887,0.412,0.715,0.674,���쐼,0.7,��
2019/11/11,22:00,0.713,1.013,0.674,1.258,0.888,0.411,0.716,0.677,-,CALM,��
2019/11/11,22:10,0.713,1.015,0.671,1.255,0.888,0.411,0.713,0.675,��,0.8,��
2019/11/11,22:20,0.713,1.014,0.670,1.256,0.886,0.411,0.715,0.677,��,1.1,��
2019/11/11,22:30,0.715,1.013,0.671,1.256,0.888,0.412,0.714,0.677,��쓌,1.6,��
2019/11/11,22:40,0.713,1.014,0.673,1.256,0.887,0.413,0.715,0.676,��쓌,3.1,��
2019/11/11,22:50,0.716,1.016,0.672,1.256,0.888,0.410,0.715,0.676,��쓌,2.8,��
2019/11/11,23:00,0.714,1.013,0.670,1.257,0.886,0.412,0.714,0.677,��,2.5,��
2019/11/11,23:10,0.713,1.015,0.673,1.256,0.887,0.409,0.715,0.677,�쐼,2.5,��
2019/11/11,23:20,0.715,1.015,0.672,1.259,0.889,0.410,0.716,0.677,���쐼,2.8,��
2019/11/11,23:30,0.713,1.014,0.672,1.258,0.888,0.411,0.714,0.677,��,2.8,��
2019/11/11,23:40,0.715,1.013,0.673,1.257,0.887,0.411,0.713,0.676,���k��,4.2,��
2019/11/11,23:50,0.716,1.012,0.672,1.259,0.886,0.413,0.716,0.676,���쐼,4.8,��
